owner,sensor,date,latitude,longitude,vertical_datum,sea_water_temperature,qcFlag 
NERRS,ioos:station:NOAA.NERRS:marcwwq:1,2014-05-01T00:30:00Z,28.0841,-97.2009,0.0,23.6,2 
NERRS,ioos:station:NOAA.NERRS:marcwwq:1,2014-05-01T01:30:00Z,28.0841,-97.2009,0.0,23.5,2 
NERRS,ioos:station:NOAA.NERRS:marcwwq:1,2014-05-01T02:30:00Z,28.0841,-97.2009,0.0,23.3,2 
NERRS,ioos:station:NOAA.NERRS:marcwwq:1,2014-05-01T03:00:00Z,28.0841,-97.2009,0.0,23.3,2 
NERRS,ioos:station:NOAA.NERRS:marcwwq:1,2014-05-01T04:30:00Z,28.0841,-97.2009,0.0,23.0,2 
NERRS,ioos:station:NOAA.NERRS:marcwwq:1,2014-05-01T05:30:00Z,28.0841,-97.2009,0.0,22.8,2 
NERRS,ioos:station:NOAA.NERRS:marcwwq:1,2014-05-01T07:00:00Z,28.0841,-97.2009,0.0,22.6,2 
NERRS,ioos:station:NOAA.NERRS:marcwwq:1,2014-05-01T07:30:00Z,28.0841,-97.2009,0.0,22.5,2 
NERRS,ioos:station:NOAA.NERRS:marcwwq:1,2014-05-01T08:30:00Z,28.0841,-97.2009,0.0,22.3,2 
NERRS,ioos:station:NOAA.NERRS:marcwwq:1,2014-05-01T09:30:00Z,28.0841,-97.2009,0.0,22.2,2 
NERRS,ioos:station:NOAA.NERRS:marcwwq:1,2014-05-01T10:30:00Z,28.0841,-97.2009,0.0,22.0,2 
NERRS,ioos:station:NOAA.NERRS:marcwwq:1,2014-05-01T11:30:00Z,28.0841,-97.2009,0.0,21.9,2 
NERRS,ioos:station:NOAA.NERRS:marcwwq:1,2014-05-01T12:30:00Z,28.0841,-97.2009,0.0,21.7,2 
NERRS,ioos:station:NOAA.NERRS:marcwwq:1,2014-05-01T13:30:00Z,28.0841,-97.2009,0.0,21.6,2 
NERRS,ioos:station:NOAA.NERRS:marcwwq:1,2014-05-01T14:30:00Z,28.0841,-97.2009,0.0,21.4,2 
NERRS,ioos:station:NOAA.NERRS:marcwwq:1,2014-05-01T15:30:00Z,28.0841,-97.2009,0.0,21.3,2 
NERRS,ioos:station:NOAA.NERRS:marcwwq:1,2014-05-01T16:30:00Z,28.0841,-97.2009,0.0,21.3,2 
NERRS,ioos:station:NOAA.NERRS:marcwwq:1,2014-05-01T17:30:00Z,28.0841,-97.2009,0.0,21.4,2 
NERRS,ioos:station:NOAA.NERRS:marcwwq:1,2014-05-01T18:30:00Z,28.0841,-97.2009,0.0,21.4,2 
NERRS,ioos:station:NOAA.NERRS:marcwwq:1,2014-05-01T19:30:00Z,28.0841,-97.2009,0.0,21.4,2 
NERRS,ioos:station:NOAA.NERRS:marcwwq:1,2014-05-01T20:30:00Z,28.0841,-97.2009,0.0,21.4,2 
NERRS,ioos:station:NOAA.NERRS:marcwwq:1,2014-05-01T21:30:00Z,28.0841,-97.2009,0.0,21.3,2 
NERRS,ioos:station:NOAA.NERRS:marcwwq:1,2014-05-01T22:30:00Z,28.0841,-97.2009,0.0,21.3,2 
NERRS,ioos:station:NOAA.NERRS:marcwwq:1,2014-05-01T23:30:00Z,28.0841,-97.2009,0.0,21.4,2 
NERRS,ioos:station:NOAA.NERRS:marcwwq:1,2014-05-02T00:30:00Z,28.0841,-97.2009,0.0,21.3,2 
NERRS,ioos:station:NOAA.NERRS:marcwwq:1,2014-05-02T01:30:00Z,28.0841,-97.2009,0.0,21.3,2 
NERRS,ioos:station:NOAA.NERRS:marcwwq:1,2014-05-02T02:30:00Z,28.0841,-97.2009,0.0,21.2,2 
NERRS,ioos:station:NOAA.NERRS:marcwwq:1,2014-05-02T03:30:00Z,28.0841,-97.2009,0.0,21.2,2 
NERRS,ioos:station:NOAA.NERRS:marcwwq:1,2014-05-02T04:30:00Z,28.0841,-97.2009,0.0,21.1,2 
NERRS,ioos:station:NOAA.NERRS:marcwwq:1,2014-05-02T05:30:00Z,28.0841,-97.2009,0.0,21.0,2 
NERRS,ioos:station:NOAA.NERRS:marcwwq:1,2014-05-02T06:30:00Z,28.0841,-97.2009,0.0,20.9,2 
NERRS,ioos:station:NOAA.NERRS:marcwwq:1,2014-05-02T07:30:00Z,28.0841,-97.2009,0.0,20.8,2 
NERRS,ioos:station:NOAA.NERRS:marcwwq:1,2014-05-02T08:30:00Z,28.0841,-97.2009,0.0,20.7,2 
NERRS,ioos:station:NOAA.NERRS:marcwwq:1,2014-05-02T09:30:00Z,28.0841,-97.2009,0.0,20.7,2 
NERRS,ioos:station:NOAA.NERRS:marcwwq:1,2014-05-02T10:30:00Z,28.0841,-97.2009,0.0,20.6,2 
NERRS,ioos:station:NOAA.NERRS:marcwwq:1,2014-05-02T11:30:00Z,28.0841,-97.2009,0.0,20.6,2 
NERRS,ioos:station:NOAA.NERRS:marcwwq:1,2014-05-02T12:30:00Z,28.0841,-97.2009,0.0,20.5,2 
NERRS,ioos:station:NOAA.NERRS:marcwwq:1,2014-05-02T13:30:00Z,28.0841,-97.2009,0.0,20.5,2 
NERRS,ioos:station:NOAA.NERRS:marcwwq:1,2014-05-02T14:30:00Z,28.0841,-97.2009,0.0,20.5,2 
NERRS,ioos:station:NOAA.NERRS:marcwwq:1,2014-05-02T15:30:00Z,28.0841,-97.2009,0.0,20.5,2 
NERRS,ioos:station:NOAA.NERRS:marcwwq:1,2014-05-02T16:30:00Z,28.0841,-97.2009,0.0,20.7,2 
NERRS,ioos:station:NOAA.NERRS:marcwwq:1,2014-05-02T17:30:00Z,28.0841,-97.2009,0.0,20.8,2 
NERRS,ioos:station:NOAA.NERRS:marcwwq:1,2014-05-02T18:30:00Z,28.0841,-97.2009,0.0,20.8,2 
NERRS,ioos:station:NOAA.NERRS:marcwwq:1,2014-05-02T19:30:00Z,28.0841,-97.2009,0.0,21.1,2 
NERRS,ioos:station:NOAA.NERRS:marcwwq:1,2014-05-02T20:30:00Z,28.0841,-97.2009,0.0,21.1,2 
NERRS,ioos:station:NOAA.NERRS:marcwwq:1,2014-05-02T21:30:00Z,28.0841,-97.2009,0.0,21.1,2 
NERRS,ioos:station:NOAA.NERRS:marcwwq:1,2014-05-02T22:30:00Z,28.0841,-97.2009,0.0,21.0,2 
NERRS,ioos:station:NOAA.NERRS:marcwwq:1,2014-05-02T23:30:00Z,28.0841,-97.2009,0.0,21.3,2 
NERRS,ioos:station:NOAA.NERRS:marcwwq:1,2014-05-03T00:30:00Z,28.0841,-97.2009,0.0,21.4,2 
NERRS,ioos:station:NOAA.NERRS:marcwwq:1,2014-05-03T01:30:00Z,28.0841,-97.2009,0.0,21.4,2 
NERRS,ioos:station:NOAA.NERRS:marcwwq:1,2014-05-03T02:30:00Z,28.0841,-97.2009,0.0,21.3,2 
NERRS,ioos:station:NOAA.NERRS:marcwwq:1,2014-05-03T03:30:00Z,28.0841,-97.2009,0.0,21.2,2 
NERRS,ioos:station:NOAA.NERRS:marcwwq:1,2014-05-03T04:30:00Z,28.0841,-97.2009,0.0,21.0,2 
NERRS,ioos:station:NOAA.NERRS:marcwwq:1,2014-05-03T05:30:00Z,28.0841,-97.2009,0.0,20.9,2 
NERRS,ioos:station:NOAA.NERRS:marcwwq:1,2014-05-03T08:30:00Z,28.0841,-97.2009,0.0,20.5,2 
NERRS,ioos:station:NOAA.NERRS:marcwwq:1,2014-05-03T14:30:00Z,28.0841,-97.2009,0.0,20.0,2 
NERRS,ioos:station:NOAA.NERRS:marcwwq:1,2014-05-03T15:30:00Z,28.0841,-97.2009,0.0,20.2,2 
NERRS,ioos:station:NOAA.NERRS:marcwwq:1,2014-05-03T16:30:00Z,28.0841,-97.2009,0.0,20.3,2 
NERRS,ioos:station:NOAA.NERRS:marcwwq:1,2014-05-03T17:30:00Z,28.0841,-97.2009,0.0,20.6,2 
NERRS,ioos:station:NOAA.NERRS:marcwwq:1,2014-05-03T18:30:00Z,28.0841,-97.2009,0.0,20.8,2 
NERRS,ioos:station:NOAA.NERRS:marcwwq:1,2014-05-03T19:30:00Z,28.0841,-97.2009,0.0,21.5,2 
NERRS,ioos:station:NOAA.NERRS:marcwwq:1,2014-05-03T20:30:00Z,28.0841,-97.2009,0.0,21.7,2 
NERRS,ioos:station:NOAA.NERRS:marcwwq:1,2014-05-03T21:30:00Z,28.0841,-97.2009,0.0,22.0,2 
NERRS,ioos:station:NOAA.NERRS:marcwwq:1,2014-05-03T22:30:00Z,28.0841,-97.2009,0.0,22.1,2 
NERRS,ioos:station:NOAA.NERRS:marcwwq:1,2014-05-03T23:30:00Z,28.0841,-97.2009,0.0,22.1,2 
NERRS,ioos:station:NOAA.NERRS:marcwwq:1,2014-05-04T01:30:00Z,28.0841,-97.2009,0.0,21.7,2 
NERRS,ioos:station:NOAA.NERRS:marcwwq:1,2014-05-04T14:30:00Z,28.0841,-97.2009,0.0,20.7,2 
NERRS,ioos:station:NOAA.NERRS:marcwwq:1,2014-05-04T15:30:00Z,28.0841,-97.2009,0.0,20.9,2 
NERRS,ioos:station:NOAA.NERRS:marcwwq:1,2014-05-04T16:30:00Z,28.0841,-97.2009,0.0,21.1,2 
NERRS,ioos:station:NOAA.NERRS:marcwwq:1,2014-05-04T19:30:00Z,28.0841,-97.2009,0.0,22.0,2 
NERRS,ioos:station:NOAA.NERRS:marcwwq:1,2014-05-04T22:30:00Z,28.0841,-97.2009,0.0,22.6,2 
NERRS,ioos:station:NOAA.NERRS:marcwwq:1,2014-05-04T23:30:00Z,28.0841,-97.2009,0.0,22.5,2 
NERRS,ioos:station:NOAA.NERRS:marcwwq:1,2014-05-05T02:30:00Z,28.0841,-97.2009,0.0,22.2,2 
NERRS,ioos:station:NOAA.NERRS:marcwwq:1,2014-05-05T04:30:00Z,28.0841,-97.2009,0.0,22.0,2 
NERRS,ioos:station:NOAA.NERRS:marcwwq:1,2014-05-05T05:30:00Z,28.0841,-97.2009,0.0,21.9,2 
NERRS,ioos:station:NOAA.NERRS:marcwwq:1,2014-05-05T07:30:00Z,28.0841,-97.2009,0.0,21.7,2 
NERRS,ioos:station:NOAA.NERRS:marcwwq:1,2014-05-05T08:30:00Z,28.0841,-97.2009,0.0,21.6,2 
NERRS,ioos:station:NOAA.NERRS:marcwwq:1,2014-05-05T09:30:00Z,28.0841,-97.2009,0.0,21.5,2 
NERRS,ioos:station:NOAA.NERRS:marcwwq:1,2014-05-05T10:30:00Z,28.0841,-97.2009,0.0,21.4,2 
NERRS,ioos:station:NOAA.NERRS:marcwwq:1,2014-05-05T11:30:00Z,28.0841,-97.2009,0.0,21.4,2 
NERRS,ioos:station:NOAA.NERRS:marcwwq:1,2014-05-05T12:30:00Z,28.0841,-97.2009,0.0,21.3,2 
NERRS,ioos:station:NOAA.NERRS:marcwwq:1,2014-05-05T13:30:00Z,28.0841,-97.2009,0.0,21.3,2 
NERRS,ioos:station:NOAA.NERRS:marcwwq:1,2014-05-05T15:30:00Z,28.0841,-97.2009,0.0,21.5,2 
NERRS,ioos:station:NOAA.NERRS:marcwwq:1,2014-05-05T20:30:00Z,28.0841,-97.2009,0.0,23.0,2 
NERRS,ioos:station:NOAA.NERRS:marcwwq:1,2014-05-05T21:30:00Z,28.0841,-97.2009,0.0,23.2,2 
NERRS,ioos:station:NOAA.NERRS:marcwwq:1,2014-05-05T22:30:00Z,28.0841,-97.2009,0.0,23.3,2 
NERRS,ioos:station:NOAA.NERRS:marcwwq:1,2014-05-06T00:30:00Z,28.0841,-97.2009,0.0,23.2,2 
NERRS,ioos:station:NOAA.NERRS:marcwwq:1,2014-05-06T02:30:00Z,28.0841,-97.2009,0.0,22.9,2 
NERRS,ioos:station:NOAA.NERRS:marcwwq:1,2014-05-06T03:30:00Z,28.0841,-97.2009,0.0,22.9,2 
NERRS,ioos:station:NOAA.NERRS:marcwwq:1,2014-05-06T04:30:00Z,28.0841,-97.2009,0.0,22.8,2 
NERRS,ioos:station:NOAA.NERRS:marcwwq:1,2014-05-06T07:30:00Z,28.0841,-97.2009,0.0,22.6,2 
NERRS,ioos:station:NOAA.NERRS:marcwwq:1,2014-05-06T08:30:00Z,28.0841,-97.2009,0.0,22.5,2 
NERRS,ioos:station:NOAA.NERRS:marcwwq:1,2014-05-06T09:30:00Z,28.0841,-97.2009,0.0,22.4,2 
NERRS,ioos:station:NOAA.NERRS:marcwwq:1,2014-05-06T11:30:00Z,28.0841,-97.2009,0.0,22.3,2 
NERRS,ioos:station:NOAA.NERRS:marcwwq:1,2014-05-06T12:30:00Z,28.0841,-97.2009,0.0,22.2,2 
NERRS,ioos:station:NOAA.NERRS:marcwwq:1,2014-05-06T13:30:00Z,28.0841,-97.2009,0.0,22.2,2 
NERRS,ioos:station:NOAA.NERRS:marcwwq:1,2014-05-06T14:30:00Z,28.0841,-97.2009,0.0,22.3,2 
NERRS,ioos:station:NOAA.NERRS:marcwwq:1,2014-05-06T15:30:00Z,28.0841,-97.2009,0.0,22.3,2 
NERRS,ioos:station:NOAA.NERRS:marcwwq:1,2014-05-06T16:30:00Z,28.0841,-97.2009,0.0,22.4,2 
NERRS,ioos:station:NOAA.NERRS:marcwwq:1,2014-05-06T17:30:00Z,28.0841,-97.2009,0.0,22.6,2 
NERRS,ioos:station:NOAA.NERRS:marcwwq:1,2014-05-06T23:00:00Z,28.0841,-97.2009,0.0,23.3,2 
NERRS,ioos:station:NOAA.NERRS:marcwwq:1,2014-05-07T01:30:00Z,28.0841,-97.2009,0.0,23.2,2 
NERRS,ioos:station:NOAA.NERRS:marcwwq:1,2014-05-07T03:30:00Z,28.0841,-97.2009,0.0,23.1,2 
NERRS,ioos:station:NOAA.NERRS:marcwwq:1,2014-05-07T04:30:00Z,28.0841,-97.2009,0.0,23.1,2 
NERRS,ioos:station:NOAA.NERRS:marcwwq:1,2014-05-07T08:30:00Z,28.0841,-97.2009,0.0,22.9,2 
NERRS,ioos:station:NOAA.NERRS:marcwwq:1,2014-05-07T09:30:00Z,28.0841,-97.2009,0.0,22.8,2 
NERRS,ioos:station:NOAA.NERRS:marcwwq:1,2014-05-07T11:30:00Z,28.0841,-97.2009,0.0,22.8,2 
NERRS,ioos:station:NOAA.NERRS:marcwwq:1,2014-05-07T12:30:00Z,28.0841,-97.2009,0.0,22.7,2 
NERRS,ioos:station:NOAA.NERRS:marcwwq:1,2014-05-07T14:30:00Z,28.0841,-97.2009,0.0,22.7,2 
NERRS,ioos:station:NOAA.NERRS:marcwwq:1,2014-05-07T15:30:00Z,28.0841,-97.2009,0.0,22.9,2 
NERRS,ioos:station:NOAA.NERRS:marcwwq:1,2014-05-07T16:30:00Z,28.0841,-97.2009,0.0,23.0,2 
NERRS,ioos:station:NOAA.NERRS:marcwwq:1,2014-05-07T17:30:00Z,28.0841,-97.2009,0.0,23.1,2 
NERRS,ioos:station:NOAA.NERRS:marcwwq:1,2014-05-07T18:30:00Z,28.0841,-97.2009,0.0,23.3,2 
NERRS,ioos:station:NOAA.NERRS:marcwwq:1,2014-05-07T19:30:00Z,28.0841,-97.2009,0.0,23.4,2 
NERRS,ioos:station:NOAA.NERRS:marcwwq:1,2014-05-07T20:30:00Z,28.0841,-97.2009,0.0,23.4,2 
NERRS,ioos:station:NOAA.NERRS:marcwwq:1,2014-05-07T21:30:00Z,28.0841,-97.2009,0.0,23.4,2 
NERRS,ioos:station:NOAA.NERRS:marcwwq:1,2014-05-08T00:30:00Z,28.0841,-97.2009,0.0,23.8,2 
NERRS,ioos:station:NOAA.NERRS:marcwwq:1,2014-05-08T01:30:00Z,28.0841,-97.2009,0.0,23.8,2 
NERRS,ioos:station:NOAA.NERRS:marcwwq:1,2014-05-08T02:30:00Z,28.0841,-97.2009,0.0,23.7,2 
NERRS,ioos:station:NOAA.NERRS:marcwwq:1,2014-05-08T03:30:00Z,28.0841,-97.2009,0.0,23.7,2 
NERRS,ioos:station:NOAA.NERRS:marcwwq:1,2014-05-08T04:30:00Z,28.0841,-97.2009,0.0,23.6,2 
NERRS,ioos:station:NOAA.NERRS:marcwwq:1,2014-05-08T05:30:00Z,28.0841,-97.2009,0.0,23.5,2 
NERRS,ioos:station:NOAA.NERRS:marcwwq:1,2014-05-08T06:30:00Z,28.0841,-97.2009,0.0,23.5,2 
NERRS,ioos:station:NOAA.NERRS:marcwwq:1,2014-05-08T09:00:00Z,28.0841,-97.2009,0.0,23.5,2 
NERRS,ioos:station:NOAA.NERRS:marcwwq:1,2014-05-08T11:30:00Z,28.0841,-97.2009,0.0,23.5,2 
NERRS,ioos:station:NOAA.NERRS:marcwwq:1,2014-05-08T12:30:00Z,28.0841,-97.2009,0.0,23.5,2 
NERRS,ioos:station:NOAA.NERRS:marcwwq:1,2014-05-08T13:30:00Z,28.0841,-97.2009,0.0,23.5,2 
NERRS,ioos:station:NOAA.NERRS:marcwwq:1,2014-05-08T14:30:00Z,28.0841,-97.2009,0.0,23.5,2 
NERRS,ioos:station:NOAA.NERRS:marcwwq:1,2014-05-08T17:30:00Z,28.0841,-97.2009,0.0,23.6,2 
NERRS,ioos:station:NOAA.NERRS:marcwwq:1,2014-05-08T18:30:00Z,28.0841,-97.2009,0.0,23.6,2 
NERRS,ioos:station:NOAA.NERRS:marcwwq:1,2014-05-08T19:30:00Z,28.0841,-97.2009,0.0,23.7,2 
NERRS,ioos:station:NOAA.NERRS:marcwwq:1,2014-05-08T20:30:00Z,28.0841,-97.2009,0.0,23.7,2 
NERRS,ioos:station:NOAA.NERRS:marcwwq:1,2014-05-08T21:30:00Z,28.0841,-97.2009,0.0,23.8,2 
NERRS,ioos:station:NOAA.NERRS:marcwwq:1,2014-05-08T22:30:00Z,28.0841,-97.2009,0.0,23.9,2 
NERRS,ioos:station:NOAA.NERRS:marcwwq:1,2014-05-08T23:30:00Z,28.0841,-97.2009,0.0,23.9,2 
NERRS,ioos:station:NOAA.NERRS:marcwwq:1,2014-05-09T00:30:00Z,28.0841,-97.2009,0.0,23.9,2 
NERRS,ioos:station:NOAA.NERRS:marcwwq:1,2014-05-09T01:30:00Z,28.0841,-97.2009,0.0,24.0,2 
NERRS,ioos:station:NOAA.NERRS:marcwwq:1,2014-05-09T02:30:00Z,28.0841,-97.2009,0.0,23.9,2 
NERRS,ioos:station:NOAA.NERRS:marcwwq:1,2014-05-09T03:30:00Z,28.0841,-97.2009,0.0,23.9,2 
NERRS,ioos:station:NOAA.NERRS:marcwwq:1,2014-05-09T04:30:00Z,28.0841,-97.2009,0.0,23.9,2 
NERRS,ioos:station:NOAA.NERRS:marcwwq:1,2014-05-09T07:00:00Z,28.0841,-97.2009,0.0,23.8,2 
NERRS,ioos:station:NOAA.NERRS:marcwwq:1,2014-05-09T07:30:00Z,28.0841,-97.2009,0.0,23.8,2 
NERRS,ioos:station:NOAA.NERRS:marcwwq:1,2014-05-09T09:30:00Z,28.0841,-97.2009,0.0,23.8,2 
NERRS,ioos:station:NOAA.NERRS:marcwwq:1,2014-05-09T10:30:00Z,28.0841,-97.2009,0.0,23.8,2 
NERRS,ioos:station:NOAA.NERRS:marcwwq:1,2014-05-09T11:00:00Z,28.0841,-97.2009,0.0,23.8,2 
NERRS,ioos:station:NOAA.NERRS:marcwwq:1,2014-05-09T12:30:00Z,28.0841,-97.2009,0.0,23.8,2 
NERRS,ioos:station:NOAA.NERRS:marcwwq:1,2014-05-09T14:30:00Z,28.0841,-97.2009,0.0,23.8,2 
NERRS,ioos:station:NOAA.NERRS:marcwwq:1,2014-05-09T15:30:00Z,28.0841,-97.2009,0.0,23.8,2 
NERRS,ioos:station:NOAA.NERRS:marcwwq:1,2014-05-09T16:30:00Z,28.0841,-97.2009,0.0,23.8,2 
NERRS,ioos:station:NOAA.NERRS:marcwwq:1,2014-05-09T17:30:00Z,28.0841,-97.2009,0.0,23.8,2 
NERRS,ioos:station:NOAA.NERRS:marcwwq:1,2014-05-09T18:30:00Z,28.0841,-97.2009,0.0,23.9,2 
NERRS,ioos:station:NOAA.NERRS:marcwwq:1,2014-05-09T19:30:00Z,28.0841,-97.2009,0.0,23.9,2 
NERRS,ioos:station:NOAA.NERRS:marcwwq:1,2014-05-09T20:30:00Z,28.0841,-97.2009,0.0,23.9,2 
NERRS,ioos:station:NOAA.NERRS:marcwwq:1,2014-05-09T21:30:00Z,28.0841,-97.2009,0.0,24.0,2 
NERRS,ioos:station:NOAA.NERRS:marcwwq:1,2014-05-09T23:30:00Z,28.0841,-97.2009,0.0,24.0,2 
NERRS,ioos:station:NOAA.NERRS:marcwwq:1,2014-05-10T00:30:00Z,28.0841,-97.2009,0.0,24.0,2 
NERRS,ioos:station:NOAA.NERRS:marcwwq:1,2014-05-10T01:30:00Z,28.0841,-97.2009,0.0,23.9,2 
NERRS,ioos:station:NOAA.NERRS:marcwwq:1,2014-05-10T02:30:00Z,28.0841,-97.2009,0.0,23.8,2 
NERRS,ioos:station:NOAA.NERRS:marcwwq:1,2014-05-10T03:30:00Z,28.0841,-97.2009,0.0,23.7,2 
NERRS,ioos:station:NOAA.NERRS:marcwwq:1,2014-05-10T04:30:00Z,28.0841,-97.2009,0.0,23.6,2 
NERRS,ioos:station:NOAA.NERRS:marcwwq:1,2014-05-10T05:30:00Z,28.0841,-97.2009,0.0,23.5,2 
NERRS,ioos:station:NOAA.NERRS:marcwwq:1,2014-05-10T06:30:00Z,28.0841,-97.2009,0.0,23.4,2 
NERRS,ioos:station:NOAA.NERRS:marcwwq:1,2014-05-10T07:30:00Z,28.0841,-97.2009,0.0,23.4,2 
NERRS,ioos:station:NOAA.NERRS:marcwwq:1,2014-05-10T08:30:00Z,28.0841,-97.2009,0.0,23.3,2 
NERRS,ioos:station:NOAA.NERRS:marcwwq:1,2014-05-10T09:30:00Z,28.0841,-97.2009,0.0,23.3,2 
NERRS,ioos:station:NOAA.NERRS:marcwwq:1,2014-05-10T10:30:00Z,28.0841,-97.2009,0.0,23.2,2 
NERRS,ioos:station:NOAA.NERRS:marcwwq:1,2014-05-10T11:30:00Z,28.0841,-97.2009,0.0,23.2,2 
NERRS,ioos:station:NOAA.NERRS:marcwwq:1,2014-05-10T12:30:00Z,28.0841,-97.2009,0.0,23.1,2 
NERRS,ioos:station:NOAA.NERRS:marcwwq:1,2014-05-10T13:30:00Z,28.0841,-97.2009,0.0,23.1,2 
NERRS,ioos:station:NOAA.NERRS:marcwwq:1,2014-05-10T14:30:00Z,28.0841,-97.2009,0.0,23.2,2 
NERRS,ioos:station:NOAA.NERRS:marcwwq:1,2014-05-10T15:30:00Z,28.0841,-97.2009,0.0,23.3,2 
NERRS,ioos:station:NOAA.NERRS:marcwwq:1,2014-05-10T16:30:00Z,28.0841,-97.2009,0.0,23.4,2 
NERRS,ioos:station:NOAA.NERRS:marcwwq:1,2014-05-10T17:30:00Z,28.0841,-97.2009,0.0,23.6,2 
NERRS,ioos:station:NOAA.NERRS:marcwwq:1,2014-05-10T20:30:00Z,28.0841,-97.2009,0.0,25.0,2 
NERRS,ioos:station:NOAA.NERRS:marcwwq:1,2014-05-11T01:30:00Z,28.0841,-97.2009,0.0,25.3,2 
NERRS,ioos:station:NOAA.NERRS:marcwwq:1,2014-05-11T02:30:00Z,28.0841,-97.2009,0.0,25.3,2 
NERRS,ioos:station:NOAA.NERRS:marcwwq:1,2014-05-11T03:30:00Z,28.0841,-97.2009,0.0,25.2,2 
NERRS,ioos:station:NOAA.NERRS:marcwwq:1,2014-05-11T04:30:00Z,28.0841,-97.2009,0.0,25.2,2 
NERRS,ioos:station:NOAA.NERRS:marcwwq:1,2014-05-11T07:30:00Z,28.0841,-97.2009,0.0,25.0,2 
NERRS,ioos:station:NOAA.NERRS:marcwwq:1,2014-05-11T08:30:00Z,28.0841,-97.2009,0.0,25.0,2 
NERRS,ioos:station:NOAA.NERRS:marcwwq:1,2014-05-11T10:30:00Z,28.0841,-97.2009,0.0,24.8,2 
NERRS,ioos:station:NOAA.NERRS:marcwwq:1,2014-05-11T11:30:00Z,28.0841,-97.2009,0.0,24.8,2 
NERRS,ioos:station:NOAA.NERRS:marcwwq:1,2014-05-11T12:30:00Z,28.0841,-97.2009,0.0,24.8,2 
NERRS,ioos:station:NOAA.NERRS:marcwwq:1,2014-05-11T13:30:00Z,28.0841,-97.2009,0.0,24.8,2 
NERRS,ioos:station:NOAA.NERRS:marcwwq:1,2014-05-11T14:30:00Z,28.0841,-97.2009,0.0,24.9,2 
NERRS,ioos:station:NOAA.NERRS:marcwwq:1,2014-05-11T18:30:00Z,28.0841,-97.2009,0.0,25.3,2 
NERRS,ioos:station:NOAA.NERRS:marcwwq:1,2014-05-11T19:30:00Z,28.0841,-97.2009,0.0,25.4,2 
NERRS,ioos:station:NOAA.NERRS:marcwwq:1,2014-05-11T20:30:00Z,28.0841,-97.2009,0.0,25.5,2 
NERRS,ioos:station:NOAA.NERRS:marcwwq:1,2014-05-11T21:30:00Z,28.0841,-97.2009,0.0,25.6,2 
NERRS,ioos:station:NOAA.NERRS:marcwwq:1,2014-05-11T23:30:00Z,28.0841,-97.2009,0.0,25.6,2 
NERRS,ioos:station:NOAA.NERRS:marcwwq:1,2014-05-12T00:30:00Z,28.0841,-97.2009,0.0,25.6,2 
NERRS,ioos:station:NOAA.NERRS:marcwwq:1,2014-05-12T02:30:00Z,28.0841,-97.2009,0.0,25.5,2 
NERRS,ioos:station:NOAA.NERRS:marcwwq:1,2014-05-12T03:30:00Z,28.0841,-97.2009,0.0,25.4,2 
NERRS,ioos:station:NOAA.NERRS:marcwwq:1,2014-05-12T04:30:00Z,28.0841,-97.2009,0.0,25.4,2 
NERRS,ioos:station:NOAA.NERRS:marcwwq:1,2014-05-12T09:30:00Z,28.0841,-97.2009,0.0,25.5,2 
NERRS,ioos:station:NOAA.NERRS:marcwwq:1,2014-05-12T11:30:00Z,28.0841,-97.2009,0.0,25.4,2 
NERRS,ioos:station:NOAA.NERRS:marcwwq:1,2014-05-12T15:30:00Z,28.0841,-97.2009,0.0,25.5,2 
NERRS,ioos:station:NOAA.NERRS:marcwwq:1,2014-05-12T16:30:00Z,28.0841,-97.2009,0.0,25.6,2 
NERRS,ioos:station:NOAA.NERRS:marcwwq:1,2014-05-12T17:30:00Z,28.0841,-97.2009,0.0,25.6,2 
NERRS,ioos:station:NOAA.NERRS:marcwwq:1,2014-05-12T19:30:00Z,28.0841,-97.2009,0.0,25.8,2 
NERRS,ioos:station:NOAA.NERRS:marcwwq:1,2014-05-12T20:30:00Z,28.0841,-97.2009,0.0,26.0,2 
NERRS,ioos:station:NOAA.NERRS:marcwwq:1,2014-05-12T21:30:00Z,28.0841,-97.2009,0.0,26.3,2 
NERRS,ioos:station:NOAA.NERRS:marcwwq:1,2014-05-13T00:30:00Z,28.0841,-97.2009,0.0,26.3,2 
NERRS,ioos:station:NOAA.NERRS:marcwwq:1,2014-05-13T01:30:00Z,28.0841,-97.2009,0.0,26.1,2 
NERRS,ioos:station:NOAA.NERRS:marcwwq:1,2014-05-13T02:30:00Z,28.0841,-97.2009,0.0,26.2,2 
NERRS,ioos:station:NOAA.NERRS:marcwwq:1,2014-05-13T03:30:00Z,28.0841,-97.2009,0.0,26.1,2 
NERRS,ioos:station:NOAA.NERRS:marcwwq:1,2014-05-13T04:30:00Z,28.0841,-97.2009,0.0,26.1,2 
NERRS,ioos:station:NOAA.NERRS:marcwwq:1,2014-05-13T07:30:00Z,28.0841,-97.2009,0.0,25.7,2 
NERRS,ioos:station:NOAA.NERRS:marcwwq:1,2014-05-13T08:30:00Z,28.0841,-97.2009,0.0,25.7,2 
NERRS,ioos:station:NOAA.NERRS:marcwwq:1,2014-05-13T09:30:00Z,28.0841,-97.2009,0.0,25.4,2 
NERRS,ioos:station:NOAA.NERRS:marcwwq:1,2014-05-13T10:30:00Z,28.0841,-97.2009,0.0,25.2,2 
NERRS,ioos:station:NOAA.NERRS:marcwwq:1,2014-05-13T11:30:00Z,28.0841,-97.2009,0.0,25.0,2 
NERRS,ioos:station:NOAA.NERRS:marcwwq:1,2014-05-13T12:30:00Z,28.0841,-97.2009,0.0,24.8,2 
NERRS,ioos:station:NOAA.NERRS:marcwwq:1,2014-05-13T15:30:00Z,28.0841,-97.2009,0.0,24.5,2 
NERRS,ioos:station:NOAA.NERRS:marcwwq:1,2014-05-13T16:30:00Z,28.0841,-97.2009,0.0,24.4,2 
NERRS,ioos:station:NOAA.NERRS:marcwwq:1,2014-05-13T19:30:00Z,28.0841,-97.2009,0.0,24.6,2 
NERRS,ioos:station:NOAA.NERRS:marcwwq:1,2014-05-13T20:30:00Z,28.0841,-97.2009,0.0,24.6,2 
NERRS,ioos:station:NOAA.NERRS:marcwwq:1,2014-05-13T21:30:00Z,28.0841,-97.2009,0.0,24.7,2 
NERRS,ioos:station:NOAA.NERRS:marcwwq:1,2014-05-13T22:30:00Z,28.0841,-97.2009,0.0,24.6,2 
NERRS,ioos:station:NOAA.NERRS:marcwwq:1,2014-05-13T23:30:00Z,28.0841,-97.2009,0.0,24.5,2 
NERRS,ioos:station:NOAA.NERRS:marcwwq:1,2014-05-14T00:30:00Z,28.0841,-97.2009,0.0,24.2,2 
NERRS,ioos:station:NOAA.NERRS:marcwwq:1,2014-05-14T01:30:00Z,28.0841,-97.2009,0.0,24.1,2 
NERRS,ioos:station:NOAA.NERRS:marcwwq:1,2014-05-14T02:30:00Z,28.0841,-97.2009,0.0,24.0,2 
NERRS,ioos:station:NOAA.NERRS:marcwwq:1,2014-05-14T04:00:00Z,28.0841,-97.2009,0.0,23.7,2 
NERRS,ioos:station:NOAA.NERRS:marcwwq:1,2014-05-14T05:30:00Z,28.0841,-97.2009,0.0,23.4,2 
NERRS,ioos:station:NOAA.NERRS:marcwwq:1,2014-05-14T07:00:00Z,28.0841,-97.2009,0.0,23.2,2 
NERRS,ioos:station:NOAA.NERRS:marcwwq:1,2014-05-14T07:30:00Z,28.0841,-97.2009,0.0,23.1,2 
NERRS,ioos:station:NOAA.NERRS:marcwwq:1,2014-05-14T08:30:00Z,28.0841,-97.2009,0.0,22.9,2 
NERRS,ioos:station:NOAA.NERRS:marcwwq:1,2014-05-14T09:30:00Z,28.0841,-97.2009,0.0,22.7,2 
NERRS,ioos:station:NOAA.NERRS:marcwwq:1,2014-05-14T10:30:00Z,28.0841,-97.2009,0.0,22.5,2 
NERRS,ioos:station:NOAA.NERRS:marcwwq:1,2014-05-14T11:30:00Z,28.0841,-97.2009,0.0,22.4,2 
NERRS,ioos:station:NOAA.NERRS:marcwwq:1,2014-05-14T12:30:00Z,28.0841,-97.2009,0.0,22.3,2 
NERRS,ioos:station:NOAA.NERRS:marcwwq:1,2014-05-14T13:30:00Z,28.0841,-97.2009,0.0,22.2,2 
NERRS,ioos:station:NOAA.NERRS:marcwwq:1,2014-05-14T14:30:00Z,28.0841,-97.2009,0.0,22.1,2 
NERRS,ioos:station:NOAA.NERRS:marcwwq:1,2014-05-14T15:30:00Z,28.0841,-97.2009,0.0,22.1,2 
NERRS,ioos:station:NOAA.NERRS:marcwwq:1,2014-05-14T16:30:00Z,28.0841,-97.2009,0.0,22.2,2 
NERRS,ioos:station:NOAA.NERRS:marcwwq:1,2014-05-14T17:30:00Z,28.0841,-97.2009,0.0,22.3,2 
NERRS,ioos:station:NOAA.NERRS:marcwwq:1,2014-05-14T18:30:00Z,28.0841,-97.2009,0.0,22.5,2 
NERRS,ioos:station:NOAA.NERRS:marcwwq:1,2014-05-14T19:30:00Z,28.0841,-97.2009,0.0,22.6,2 
NERRS,ioos:station:NOAA.NERRS:marcwwq:1,2014-05-14T20:30:00Z,28.0841,-97.2009,0.0,22.7,2 
NERRS,ioos:station:NOAA.NERRS:marcwwq:1,2014-05-14T21:30:00Z,28.0841,-97.2009,0.0,22.8,2 
NERRS,ioos:station:NOAA.NERRS:marcwwq:1,2014-05-14T22:30:00Z,28.0841,-97.2009,0.0,22.8,2 
NERRS,ioos:station:NOAA.NERRS:marcwwq:1,2014-05-14T23:30:00Z,28.0841,-97.2009,0.0,22.8,2 
NERRS,ioos:station:NOAA.NERRS:marcwwq:1,2014-05-15T00:30:00Z,28.0841,-97.2009,0.0,22.6,2 
NERRS,ioos:station:NOAA.NERRS:marcwwq:1,2014-05-15T01:30:00Z,28.0841,-97.2009,0.0,22.5,2 
NERRS,ioos:station:NOAA.NERRS:marcwwq:1,2014-05-15T02:30:00Z,28.0841,-97.2009,0.0,22.4,2 
NERRS,ioos:station:NOAA.NERRS:marcwwq:1,2014-05-15T03:30:00Z,28.0841,-97.2009,0.0,22.2,2 
NERRS,ioos:station:NOAA.NERRS:marcwwq:1,2014-05-15T04:30:00Z,28.0841,-97.2009,0.0,22.0,2 
NERRS,ioos:station:NOAA.NERRS:marcwwq:1,2014-05-15T05:30:00Z,28.0841,-97.2009,0.0,21.9,2 
NERRS,ioos:station:NOAA.NERRS:marcwwq:1,2014-05-15T07:00:00Z,28.0841,-97.2009,0.0,21.7,2 
NERRS,ioos:station:NOAA.NERRS:marcwwq:1,2014-05-15T07:30:00Z,28.0841,-97.2009,0.0,21.7,2 
NERRS,ioos:station:NOAA.NERRS:marcwwq:1,2014-05-15T08:30:00Z,28.0841,-97.2009,0.0,21.6,2 
NERRS,ioos:station:NOAA.NERRS:marcwwq:1,2014-05-15T09:30:00Z,28.0841,-97.2009,0.0,21.5,2 
NERRS,ioos:station:NOAA.NERRS:marcwwq:1,2014-05-15T10:30:00Z,28.0841,-97.2009,0.0,21.4,2 
NERRS,ioos:station:NOAA.NERRS:marcwwq:1,2014-05-15T11:30:00Z,28.0841,-97.2009,0.0,21.4,2 
NERRS,ioos:station:NOAA.NERRS:marcwwq:1,2014-05-15T12:30:00Z,28.0841,-97.2009,0.0,21.3,2 
NERRS,ioos:station:NOAA.NERRS:marcwwq:1,2014-05-15T13:30:00Z,28.0841,-97.2009,0.0,21.3,2 
NERRS,ioos:station:NOAA.NERRS:marcwwq:1,2014-05-15T14:30:00Z,28.0841,-97.2009,0.0,21.4,2 
NERRS,ioos:station:NOAA.NERRS:marcwwq:1,2014-05-15T16:30:00Z,28.0841,-97.2009,0.0,21.5,2 
NERRS,ioos:station:NOAA.NERRS:marcwwq:1,2014-05-15T17:30:00Z,28.0841,-97.2009,0.0,21.6,2 
NERRS,ioos:station:NOAA.NERRS:marcwwq:1,2014-05-15T18:30:00Z,28.0841,-97.2009,0.0,21.7,2 
NERRS,ioos:station:NOAA.NERRS:marcwwq:1,2014-05-15T19:30:00Z,28.0841,-97.2009,0.0,21.7,2 
NERRS,ioos:station:NOAA.NERRS:marcwwq:1,2014-05-15T20:30:00Z,28.0841,-97.2009,0.0,21.7,2 
NERRS,ioos:station:NOAA.NERRS:marcwwq:1,2014-05-15T21:30:00Z,28.0841,-97.2009,0.0,22.0,2 
NERRS,ioos:station:NOAA.NERRS:marcwwq:1,2014-05-15T22:30:00Z,28.0841,-97.2009,0.0,22.7,2 